Ft Pierce, FL

1:18 PM EDT on March 25, 2017 (GMT -0400)
Saint Lucie County International

Weather History for KFPR - March, 2013

Change the Weather History Date:

Wednesday, March 20, 2013

  Actual Average Record
Temperature  
Mean Temperature 70 °F -  
Max Temperature 82 °F 79 °F 92 °F (1977)
Min Temperature 57 °F 56 °F 33 °F (1998)
Cooling Degree Days 4    
Growing Degree Days 20 (Base 50)    
Moisture  
Dew Point 58 °F    
Average Humidity 82    
Maximum Humidity 100    
Minimum Humidity 45    
Precipitation  
Precipitation 0.00 in - - ()
Sea Level Pressure  
Sea Level Pressure 29.91 in    
Wind  
Wind Speed 3 mph (WSW)    
Max Wind Speed 15 mph    
Max Gust Speed 29 mph    
Visibility 5 miles    
Events Fog    
Averages and records for this station are not official NWS values.
T = Trace of Precipitation, MM = Missing Value Source: NWS Daily Summary

Daily Weather History Graph

Daily Weather History Graph

Search for Another Location

Airport or City:

Trip Planner

Search our weather history database for the weather conditions in past years. The results will help you decide how hot, cold, wet, or windy it might be!

Date:

Astronomy

Mar. 20, 2013 Rise Set
Actual Time 7:25 AM EDT 7:32 PM EDT
Civil Twilight 7:01 AM EDT 7:56 PM EDT
Nautical Twilight 6:34 AM EDT 8:23 PM EDT
Astronomical Twilight 6:07 AM EDT 8:50 PM EDT
Moon 1:34 PM EDT (3/20) 2:35 AM EDT (3/20)
Length of Visible Light 12h 54m
Length of Day
12h 07m
First Quarter, 59% of the Moon is Illuminated
Mar 20
First Quarter
Mar 27
Full
Apr 3
Last Quarter
Apr 10
New
Apr 18
First Quarter

Hourly Weather History & Observations

Time (EDT) Temp. Heat Index Dew Point Humidity Pressure Visibility Wind Dir Wind Speed Gust Speed Precip Events Conditions
12:53 AM 61.0 °F - 59.0 °F 93% 29.98 in 6.0 mi NW 3.5 mph - N/A   Clear
1:53 AM 61.0 °F - 59.0 °F 93% 29.97 in 4.0 mi Calm Calm - N/A   Clear
2:14 AM 59.0 °F - 57.2 °F 94% 29.97 in 1.8 mi Calm Calm - N/A   Clear
2:25 AM 59.0 °F - 57.2 °F 94% 29.96 in 4.0 mi Calm Calm - N/A   Partly Cloudy
2:53 AM 61.0 °F - 59.0 °F 93% 29.95 in 6.0 mi Calm Calm - N/A   Clear
3:53 AM 57.9 °F - 57.0 °F 97% 29.92 in 4.0 mi Calm Calm - N/A   Clear
4:53 AM 57.0 °F - 55.9 °F 96% 29.91 in 7.0 mi Calm Calm - N/A   Clear
4:59 AM 57.2 °F - 55.4 °F 94% 29.91 in 1.5 mi Calm Calm - N/A   Clear
5:03 AM 57.2 °F - 55.4 °F 94% 29.92 in 0.5 mi Calm Calm - N/A Fog Fog
5:06 AM 57.2 °F - 55.4 °F 94% 29.92 in 0.2 mi Calm Calm - N/A Fog Fog
5:32 AM 57.2 °F - 55.4 °F 94% 29.92 in 0.2 mi Calm Calm - N/A Fog Fog
5:37 AM 57.2 °F - 55.4 °F 94% 29.92 in 0.8 mi Calm Calm - N/A   Mist
5:44 AM 57.2 °F - 55.4 °F 94% 29.93 in 1.8 mi Calm Calm - N/A   Mostly Cloudy
5:49 AM 57.2 °F - 55.4 °F 94% 29.93 in 0.8 mi Calm Calm - N/A   Scattered Clouds
5:53 AM 57.0 °F - 55.9 °F 96% 29.93 in 0.8 mi Calm Calm - N/A   Mostly Cloudy
6:00 AM 57.2 °F - 55.4 °F 94% 29.93 in 2.5 mi Calm Calm - N/A   Mostly Cloudy
6:08 AM 57.2 °F - 55.4 °F 94% 29.93 in 3.0 mi Calm Calm - N/A   Mostly Cloudy
6:34 AM 57.2 °F - 55.4 °F 94% 29.94 in 1.2 mi Calm Calm - N/A   Mostly Cloudy
6:36 AM 57.2 °F - 55.4 °F 94% 29.94 in 0.5 mi Calm Calm - N/A Fog Fog
6:44 AM 57.2 °F - 57.2 °F 100% 29.94 in 0.2 mi Calm Calm - N/A Fog Fog
6:53 AM 57.9 °F - 57.0 °F 97% 29.95 in 0.2 mi Calm Calm - N/A Fog Fog
7:01 AM 57.2 °F - 57.2 °F 100% 29.94 in 5.0 mi Calm Calm - N/A   Mostly Cloudy
7:53 AM 59.0 °F - 57.0 °F 93% 29.96 in 2.5 mi West 3.5 mph - N/A   Mostly Cloudy
8:53 AM 64.9 °F - 64.0 °F 97% 29.96 in 4.0 mi Calm Calm - N/A   Clear
9:53 AM 69.1 °F - 66.0 °F 90% 29.96 in 5.0 mi South 3.5 mph - N/A   Clear
10:53 AM 73.9 °F - 66.0 °F 76% 29.96 in 10.0 mi South 6.9 mph - N/A   Clear
11:53 AM 77.0 °F - 63.0 °F 62% 29.95 in 10.0 mi South 8.1 mph - N/A   Overcast
12:53 PM 80.1 °F 81.2 °F 62.1 °F 54% 29.92 in 10.0 mi South 8.1 mph - N/A   Scattered Clouds
1:53 PM 81.0 °F 82.2 °F 63.0 °F 54% 29.88 in 10.0 mi South 11.5 mph - N/A   Partly Cloudy
2:53 PM 82.0 °F 83.0 °F 62.1 °F 51% 29.85 in 10.0 mi WSW 10.4 mph - N/A   Mostly Cloudy
3:53 PM 80.1 °F 80.6 °F 57.9 °F 47% 29.83 in 10.0 mi WSW 10.4 mph - N/A   Partly Cloudy
4:53 PM 79.0 °F - 59.0 °F 50% 29.81 in 10.0 mi SW 10.4 mph - N/A   Clear
5:53 PM 79.0 °F - 55.9 °F 45% 29.81 in 10.0 mi West 12.7 mph - N/A   Overcast
6:53 PM 75.0 °F - 55.0 °F 50% 29.82 in 10.0 mi West 9.2 mph - N/A   Partly Cloudy
7:53 PM 73.0 °F - 57.0 °F 57% 29.85 in 10.0 mi WNW 11.5 mph - N/A   Clear
8:53 PM 71.1 °F - 57.9 °F 63% 29.87 in 10.0 mi WSW 8.1 mph - N/A   Clear
9:53 PM 70.0 °F - 57.0 °F 63% 29.89 in 10.0 mi West 15.0 mph 28.8 mph 0.00 in   Mostly Cloudy
10:53 PM 66.9 °F - 59.0 °F 76% 29.88 in 10.0 mi West 10.4 mph - 0.00 in   Partly Cloudy
11:53 PM 64.9 °F - 59.0 °F 81% 29.85 in 10.0 mi West 8.1 mph - N/A   Clear